Powrót do katalogu

ONEWEB-0458

AktywnyŁącznośćPO
NORAD 51648·PAYLOAD·🇬🇧 United Kingdom

Wystrzelony Feb 10, 2022 z Guiana Space Centre

Loading…

Następne Przeloty (najbliższe 24 godziny)

TLE

ŚwieżeSource: CelesTrak SupGP

Epoka: Sep 14, 2026, 20:04 UTC

1 51648C 22012AC  26257.83662451 -.00175430  00000+0 -49450+0 0  2577
2 51648  87.8901  18.4067 0002044 102.9921 323.4610 13.11744126    19

Śledź ONEWEB-0458 w czasie rzeczywistym z AllMySat

Download on the App Store